Weather History for KPIT - December, 2012

Change the Weather History Date:

Sunday, December 23, 2012

  Actual Average Record
Temperature  
Mean Temperature 30 °F 30 °F  
Max Temperature 38 °F 37 °F 63 °F (1933)
Min Temperature 21 °F 23 °F -3 °F (1960)
Degree Days  
Heating Degree Days 35 35  
Month to date heating degree days 537 729  
Since 1 July heating degree days 1785 1892  
Cooling Degree Days 0 0  
Month to date cooling degree days 0 0  
Year to date cooling degree days 1025 736  
Moisture  
Dew Point 20 °F    
Average Humidity 68    
Maximum Humidity 84    
Minimum Humidity 52    
Precipitation  
Precipitation 0.00 in 0.09 in 1.33 in (1883)
Month to date precipitation 4.27 2.14  
Year to date precipitation 40.48 37.48  
Snow  
Snow 0.00 in 0.30 in 5.00 in (1929)
Month to date snowfall 2.5 5.8  
Since 1 July snowfall 3.3 8.2  
Snow Depth 0.00 in    
Sea Level Pressure  
Sea Level Pressure 30.01 in    
Wind  
Wind Speed 6 mph (SW)    
Max Wind Speed 13 mph    
Max Gust Speed 17 mph    
Visibility 10 miles    
Events      
T = Trace of Precipitation, MM = Missing Value Source: NWS Daily Summary

Daily Weather History Graph

Daily Weather History Graph

Search for Another Location

Airport or City:

Trip Planner

Search our weather history database for the weather conditions in past years. The results will help you decide how hot, cold, wet, or windy it might be!

Date:

Astronomy

Dec. 23, 2012 Rise Set
Actual Time 7:41 AM EST 4:58 PM EST
Civil Twilight 7:10 AM EST 5:29 PM EST
Nautical Twilight 6:36 AM EST 6:03 PM EST
Astronomical Twilight 6:03 AM EST 6:37 PM EST
Moon 1:48 PM EST (12/23) 3:22 AM EST (12/23)
Length of Visible Light 10h 18m
Length of Day
9h 16m
Waxing Gibbous, 81% of the Moon is Illuminated
Dec 23
Waxing Gibbous
Dec 28
Full
Jan 4
Last Quarter
Jan 11
New
Jan 18
First Quarter

Hourly Weather History & Observations

Time (EST) Temp. Windchill Dew Point Humidity Pressure Visibility Wind Dir Wind Speed Gust Speed Precip Events Conditions
12:51 AM 25.0 °F 18.1 °F 19.0 °F 78% 30.09 in 10.0 mi SSW 5.8 mph - N/A   Clear
1:51 AM 24.1 °F 19.7 °F 18.0 °F 77% 30.09 in 10.0 mi SSW 3.5 mph - N/A   Clear
2:51 AM 23.0 °F 17.0 °F 18.0 °F 81% 30.09 in 10.0 mi SSW 4.6 mph - N/A   Clear
3:51 AM 21.9 °F 17.2 °F 18.0 °F 85% 30.07 in 10.0 mi SSW 3.5 mph - N/A   Clear
4:51 AM 21.9 °F 13.4 °F 18.0 °F 85% 30.04 in 10.0 mi SSW 6.9 mph - N/A   Clear
5:51 AM 21.9 °F 14.5 °F 18.0 °F 85% 30.03 in 10.0 mi SSW 5.8 mph - N/A   Clear
6:51 AM 21.9 °F 13.4 °F 18.0 °F 85% 30.01 in 10.0 mi South 6.9 mph - N/A   Clear
7:51 AM 23.0 °F 14.7 °F 18.0 °F 81% 30.01 in 10.0 mi SSW 6.9 mph - N/A   Clear
8:51 AM 24.1 °F 19.7 °F 19.0 °F 81% 30.01 in 10.0 mi South 3.5 mph - N/A   Partly Cloudy
9:51 AM 28.0 °F 20.8 °F 19.0 °F 69% 30.01 in 10.0 mi SSW 6.9 mph - N/A   Partly Cloudy
10:51 AM 32.0 °F 24.2 °F 19.0 °F 59% 29.99 in 10.0 mi SW 9.2 mph - N/A   Partly Cloudy
11:51 AM 34.0 °F 27.2 °F 19.9 °F 56% 29.96 in 10.0 mi SW 8.1 mph - N/A   Partly Cloudy
12:51 PM 35.6 °F 28.0 °F 21.2 °F 56% 29.88 in 10.0 mi SSW 10.4 mph - N/A   Scattered Clouds
1:51 PM 37.4 °F 30.3 °F 21.2 °F 52% 29.87 in 10.0 mi SW 10.4 mph - N/A   Mostly Cloudy
2:51 PM 37.9 °F 31.5 °F 21.9 °F 53% 29.94 in 10.0 mi WSW 9.2 mph - N/A   Mostly Cloudy
3:51 PM 37.9 °F 33.5 °F 23.0 °F 55% 29.96 in 10.0 mi West 5.8 mph - N/A   Mostly Cloudy
4:51 PM 36.0 °F 31.1 °F 23.0 °F 59% 29.98 in 10.0 mi West 5.8 mph - N/A   Mostly Cloudy
5:51 PM 34.0 °F 31.0 °F 21.9 °F 61% 29.99 in 10.0 mi WSW 3.5 mph - N/A   Mostly Cloudy
6:51 PM 32.0 °F - 21.9 °F 66% 30.01 in 10.0 mi Calm Calm - N/A   Mostly Cloudy
7:51 PM 28.9 °F 25.2 °F 21.9 °F 75% 30.02 in 10.0 mi West 3.5 mph - N/A   Scattered Clouds
8:51 PM 28.0 °F 24.2 °F 21.9 °F 78% 30.04 in 10.0 mi NW 3.5 mph - N/A   Partly Cloudy
9:51 PM 28.0 °F 24.2 °F 21.9 °F 78% 30.05 in 10.0 mi NW 3.5 mph - N/A   Partly Cloudy
10:51 PM 28.0 °F 20.8 °F 21.9 °F 78% 30.06 in 10.0 mi North 6.9 mph - N/A   Partly Cloudy
11:51 PM 28.9 °F - 21.9 °F 75% 30.04 in 10.0 mi Calm Calm - N/A   Scattered Clouds